CFSAM CYHZ-KBOS

Flight info

Callsign CFSAM
Flight time N/A
Altitude 43000
Route SENVI DCT VIGMA DCT ALLEX DCT AJJAY OOSHN5
Aircraft C750/M-SBDE3FGHRWXY/S

Departure

Time 2026-04-28 01:55
Airport Halifax / Stanfield International Airport (CYHZ)

Arrival

Time N/A
Airport Boston Logan International Airport (KBOS)
Time Latitude Longitude Altitude Speed Heading
2026-04-28 01:35 44.87213 -63.53214 449 ft 0 kts 207°
2026-04-28 01:44 44.87209 -63.53213 449 ft 1 kts 173°
2026-04-28 01:45 44.87173 -63.53192 449 ft 12 kts 193°
2026-04-28 01:45 44.87071 -63.53228 449 ft 18 kts 206°
2026-04-28 01:45 44.86961 -63.53309 449 ft 17 kts 208°
2026-04-28 01:45 44.86870 -63.53269 449 ft 14 kts 132°
2026-04-28 01:46 44.86803 -63.53160 449 ft 17 kts 134°
2026-04-28 01:46 44.86737 -63.53052 449 ft 13 kts 128°
2026-04-28 01:46 44.86763 -63.52922 448 ft 18 kts 51°
2026-04-28 01:46 44.86826 -63.52824 448 ft 23 kts 46°
2026-04-28 01:47 44.86964 -63.52666 448 ft 28 kts 33°
2026-04-28 01:47 44.87118 -63.52512 449 ft 26 kts 36°
2026-04-28 01:47 44.87265 -63.52368 449 ft 25 kts 36°
2026-04-28 01:47 44.87447 -63.52187 448 ft 23 kts 34°
2026-04-28 01:48 44.87576 -63.52060 448 ft 22 kts 34°
2026-04-28 01:48 44.87702 -63.51934 448 ft 24 kts 37°
2026-04-28 01:48 44.87801 -63.51833 448 ft 27 kts 34°
2026-04-28 01:48 44.87969 -63.51671 449 ft 31 kts 34°
2026-04-28 01:49 44.88156 -63.51485 448 ft 35 kts 34°
2026-04-28 01:49 44.88351 -63.51287 448 ft 32 kts 38°
2026-04-28 01:49 44.88487 -63.51211 448 ft 19 kts 347°
2026-04-28 01:49 44.88624 -63.51244 448 ft 22 kts 349°
2026-04-28 01:50 44.88785 -63.51283 448 ft 25 kts 349°
2026-04-28 01:50 44.88948 -63.51327 448 ft 18 kts 348°
2026-04-28 01:50 44.89032 -63.51437 448 ft 16 kts 306°
2026-04-28 01:50 44.89089 -63.51551 448 ft 13 kts 304°
2026-04-28 01:51 44.89139 -63.51655 448 ft 13 kts 305°
2026-04-28 01:51 44.89194 -63.51761 448 ft 14 kts 304°
2026-04-28 01:51 44.89255 -63.51848 448 ft 7 kts 348°
2026-04-28 01:51 44.89281 -63.51838 448 ft 4 kts 28°
2026-04-28 01:52 44.89283 -63.51837 448 ft 0 kts 31°
2026-04-28 01:53 44.89287 -63.51833 448 ft 2 kts 30°
2026-04-28 01:54 44.89314 -63.51809 449 ft 6 kts 35°
2026-04-28 01:54 44.89353 -63.51756 449 ft 10 kts 71°
2026-04-28 01:54 44.89328 -63.51652 449 ft 10 kts 124°
2026-04-28 01:54 44.89323 -63.51643 449 ft 0 kts 126°
2026-04-28 01:55 44.89322 -63.51640 449 ft 3 kts 126°
2026-04-28 01:55 44.89221 -63.51438 448 ft 71 kts 124°
2026-04-28 01:55 44.88731 -63.50462 531 ft 150 kts 126°
2026-04-28 01:55 44.88089 -63.49179 1108 ft 166 kts 126°
2026-04-28 01:56 44.87422 -63.47858 1941 ft 167 kts 126°
2026-04-28 01:56 44.86718 -63.46468 2591 ft 183 kts 127°
2026-04-28 01:56 44.85967 -63.45034 3536 ft 177 kts 128°
2026-04-28 01:56 44.84912 -63.44135 4257 ft 183 kts 171°
2026-04-28 01:57 44.83701 -63.44430 5098 ft 181 kts 211°
2026-04-28 01:57 44.82800 -63.45768 5583 ft 199 kts 238°
2026-04-28 01:57 44.82035 -63.47494 6180 ft 211 kts 237°
2026-04-28 01:57 44.81261 -63.49066 7585 ft 174 kts 235°
2026-04-28 01:58 44.80803 -63.50593 8437 ft 183 kts 256°
2026-04-28 01:58 44.80518 -63.52503 8789 ft 212 kts 258°
2026-04-28 01:58 44.80216 -63.54657 9187 ft 236 kts 259°
2026-04-28 01:58 44.79919 -63.57020 9675 ft 252 kts 261°
2026-04-28 01:59 44.79654 -63.59506 10435 ft 260 kts 263°
2026-04-28 01:59 44.79465 -63.62078 11174 ft 273 kts 264°
2026-04-28 01:59 44.79210 -63.64858 11522 ft 300 kts 261°
2026-04-28 01:59 44.78850 -63.67856 12032 ft 316 kts 260°
2026-04-28 02:00 44.78490 -63.70905 12974 ft 317 kts 261°
2026-04-28 02:00 44.78158 -63.73997 13777 ft 322 kts 262°
2026-04-28 02:00 44.77818 -63.77141 14590 ft 326 kts 261°
2026-04-28 02:00 44.77460 -63.80309 15380 ft 331 kts 261°
2026-04-28 02:01 44.77098 -63.83524 16183 ft 335 kts 261°
2026-04-28 02:01 44.76734 -63.86781 16985 ft 339 kts 261°
2026-04-28 02:01 44.76365 -63.90085 17805 ft 343 kts 261°
2026-04-28 02:01 44.75995 -63.93377 18602 ft 347 kts 261°
2026-04-28 02:02 44.75614 -63.96755 19408 ft 352 kts 261°
2026-04-28 02:02 44.75224 -64.00182 20219 ft 356 kts 261°
2026-04-28 02:02 44.74829 -64.03644 21000 ft 361 kts 261°
2026-04-28 02:02 44.74427 -64.07149 21756 ft 365 kts 261°
2026-04-28 02:03 44.74018 -64.10696 22490 ft 370 kts 261°
2026-04-28 02:03 44.73603 -64.14276 23211 ft 374 kts 261°
2026-04-28 02:03 44.73177 -64.17912 23901 ft 378 kts 261°
2026-04-28 02:03 44.72740 -64.21581 24580 ft 382 kts 260°
2026-04-28 02:04 44.72294 -64.25288 25253 ft 387 kts 260°
2026-04-28 02:04 44.71841 -64.29047 25916 ft 391 kts 260°
2026-04-28 02:04 44.71382 -64.32833 26557 ft 395 kts 260°
2026-04-28 02:04 44.70916 -64.36665 27194 ft 399 kts 260°
2026-04-28 02:05 44.70445 -64.40520 27817 ft 403 kts 260°
2026-04-28 02:05 44.69972 -64.44378 28430 ft 407 kts 260°
2026-04-28 02:05 44.69488 -64.48306 29042 ft 411 kts 260°
2026-04-28 02:05 44.68996 -64.52288 29624 ft 415 kts 260°
2026-04-28 02:06 44.68363 -64.56263 30143 ft 420 kts 253°
2026-04-28 02:06 44.67390 -64.60141 30723 ft 422 kts 249°
2026-04-28 02:06 44.66358 -64.64023 31264 ft 426 kts 250°
2026-04-28 02:06 44.65493 -64.68023 31755 ft 430 kts 256°
2026-04-28 02:07 44.64917 -64.72158 32284 ft 433 kts 261°
2026-04-28 02:07 44.64451 -64.76346 32781 ft 437 kts 261°
2026-04-28 02:07 44.63865 -64.80549 33267 ft 440 kts 257°
2026-04-28 02:07 44.63133 -64.84741 33750 ft 444 kts 256°
2026-04-28 02:08 44.62434 -64.88989 34203 ft 448 kts 258°
2026-04-28 02:08 44.61822 -64.93279 34653 ft 451 kts 259°
2026-04-28 02:08 44.61191 -64.97613 35108 ft 454 kts 258°
2026-04-28 02:08 44.60493 -65.01954 35539 ft 458 kts 257°
2026-04-28 02:09 44.59788 -65.06325 35982 ft 461 kts 258°
2026-04-28 02:09 44.59119 -65.10738 36397 ft 464 kts 258°
2026-04-28 02:09 44.58446 -65.15186 36788 ft 468 kts 258°
2026-04-28 02:09 44.57738 -65.19662 37167 ft 472 kts 257°
2026-04-28 02:10 44.57018 -65.24171 37543 ft 476 kts 257°
2026-04-28 02:10 44.56307 -65.28720 37914 ft 479 kts 258°
2026-04-28 02:10 44.55607 -65.33243 38270 ft 483 kts 258°
2026-04-28 02:10 44.54896 -65.37860 38624 ft 486 kts 258°
2026-04-28 02:11 44.54183 -65.42510 38967 ft 490 kts 258°
2026-04-28 02:11 44.53464 -65.47195 39312 ft 493 kts 258°
2026-04-28 02:11 44.52738 -65.51932 39641 ft 497 kts 258°
2026-04-28 02:11 44.52013 -65.56669 39938 ft 500 kts 258°
2026-04-28 02:12 44.51280 -65.61457 40230 ft 503 kts 258°
2026-04-28 02:12 44.50546 -65.66262 40524 ft 506 kts 258°
2026-04-28 02:12 44.49808 -65.71095 40795 ft 509 kts 258°
2026-04-28 02:12 44.49066 -65.75954 41064 ft 511 kts 258°
2026-04-28 02:13 44.48320 -65.80848 41314 ft 514 kts 258°
2026-04-28 02:13 44.47574 -65.85743 41536 ft 516 kts 258°
2026-04-28 02:13 44.46832 -65.90615 41733 ft 518 kts 258°
2026-04-28 02:13 44.46063 -65.95556 41905 ft 520 kts 256°
2026-04-28 02:14 44.45097 -66.00445 42063 ft 522 kts 253°
2026-04-28 02:14 44.44019 -66.05296 42132 ft 523 kts 252°
2026-04-28 02:14 44.43029 -66.10188 42470 ft 517 kts 257°
2026-04-28 02:14 44.42301 -66.15058 43003 ft 509 kts 259°
2026-04-28 02:15 44.39953 -66.29374 42991 ft 495 kts 256°
2026-04-28 02:16 44.38446 -66.38666 42998 ft 486 kts 258°
2026-04-28 02:16 44.37738 -66.42996 43007 ft 484 kts 256°
2026-04-28 02:18 44.37606 -66.43763 43009 ft 482 kts 256°
2026-04-28 02:19 44.36035 -66.52747 42993 ft 473 kts 257°
2026-04-28 02:19 44.34741 -66.61759 42986 ft 474 kts 264°
2026-04-28 02:20 44.35179 -66.70849 42991 ft 475 kts 283°
2026-04-28 02:20 44.37238 -66.79614 43013 ft 475 kts 290°
2026-04-28 02:21 44.39309 -66.88396 43008 ft 477 kts 284°
2026-04-28 02:21 44.40706 -66.97455 42986 ft 478 kts 275°
2026-04-28 02:22 44.40302 -67.06708 42993 ft 480 kts 257°
2026-04-28 02:22 44.38039 -67.15552 43014 ft 487 kts 246°
2026-04-28 02:23 44.35384 -67.24343 43005 ft 495 kts 250°
2026-04-28 02:23 44.33288 -67.33562 43005 ft 501 kts 251°
2026-04-28 02:24 44.30841 -67.42664 43011 ft 506 kts 249°
2026-04-28 02:24 44.28530 -67.51975 43003 ft 509 kts 251°